| time (UTC) | temp C | wind direction | speed KPH | gust KPH | rain 1hr cm | rain 24hr cm | rain mn cm | humidity % | barometer mb |
| 20260504151034 | 17 | 265 | 11.3 | 22.5 | 0.00 | 0.00 | 0.00 | 41 | 1013.8 |
| 20260504150533 | 17 | 243 | 11.3 | 22.5 | 0.00 | 0.00 | 0.00 | 40 | 1013.8 |
| 20260504141029 | 16 | 234 | 6.4 | 12.9 | 0.00 | 0.00 | 0.00 | 46 | 1013.9 |
| 20260504140527 | 16 | 140 | 4.8 | 16.1 | 0.00 | 0.00 | 0.00 | 48 | 1013.9 |
| 20260504130507 | 13 | 263 | 4.8 | 8.0 | 0.00 | 0.00 | 0.00 | 50 | 1014.4 |
| 20260504110457 | 8 | 207 | 1.6 | 4.8 | 0.00 | 0.00 | 0.00 | 66 | 1014.6 |
| 20260504100437 | 7 | 215 | 1.6 | 4.8 | 0.00 | 0.00 | 0.00 | 67 | 1014.5 |
| 20260504081901 | 7 | 211 | 1.6 | 4.8 | 0.00 | 0.00 | 0.00 | 63 | 1014.7 |
| 20260504081403 | 7 | 236 | 1.6 | 6.4 | 0.00 | 0.00 | 0.00 | 63 | 1014.7 |
| 20260504080908 | 7 | 227 | 1.6 | 6.4 | 0.00 | 0.00 | 0.00 | 63 | 1014.6 |
| 20260504080406 | 8 | 219 | 3.2 | 6.4 | 0.00 | 0.00 | 0.00 | 63 | 1014.6 |
| 20260504070340 | 8 | 202 | 1.6 | 4.8 | 0.00 | 0.00 | 0.00 | 61 | 1014.5 |
| 20260504050324 | 10 | 190 | 3.2 | 9.7 | 0.00 | 0.00 | 0.00 | 55 | 1014.4 |
| 20260504045817 | 10 | 205 | 3.2 | 8.0 | 0.00 | 0.00 | 0.00 | 55 | 1014.4 |
| 20260504045317 | 10 | 219 | 3.2 | 8.0 | 0.00 | 0.00 | 0.00 | 55 | 1014.4 |
| 20260504044822 | 10 | 202 | 1.6 | 6.4 | 0.00 | 0.00 | 0.00 | 55 | 1014.3 |
| 20260504044318 | 10 | 248 | 1.6 | 6.4 | 0.00 | 0.00 | 0.00 | 55 | 1014.4 |
| 20260504043825 | 10 | 234 | 1.6 | 8.0 | 0.00 | 0.00 | 0.00 | 55 | 1014.3 |
| 20260504043311 | 10 | 233 | 1.6 | 8.0 | 0.00 | 0.00 | 0.00 | 55 | 1014.4 |
| 20260504042816 | 10 | 190 | 3.2 | 8.0 | 0.00 | 0.00 | 0.00 | 55 | 1014.4 |
| 20260504042319 | 10 | 225 | 3.2 | 8.0 | 0.00 | 0.00 | 0.00 | 54 | 1014.3 |
| 20260504041811 | 10 | 250 | 1.6 | 6.4 | 0.00 | 0.00 | 0.00 | 54 | 1014.3 |
| 20260504041410 | 10 | 211 | 1.6 | 6.4 | 0.00 | 0.00 | 0.00 | 53 | 1014.2 |
| 20260504040810 | 10 | 217 | 3.2 | 6.4 | 0.00 | 0.00 | 0.00 | 53 | 1014.2 |
| 20260504040309 | 11 | 225 | 3.2 | 11.3 | 0.00 | 0.00 | 0.00 | 53 | 1014.2 |
| 20260504035808 | 11 | 209 | 3.2 | 11.3 | 0.00 | 0.00 | 0.00 | 52 | 1014.0 |
| 20260504035305 | 11 | 238 | 3.2 | 11.3 | 0.00 | 0.00 | 0.00 | 52 | 1014.0 |
| 20260504034807 | 11 | 194 | 3.2 | 11.3 | 0.00 | 0.00 | 0.00 | 52 | 1014.0 |
| 20260504034540 | 11 | 234 | 3.2 | 8.0 | 0.00 | 0.00 | 0.00 | 52 | 1013.9 |
| 20260504034305 | 11 | 234 | 3.2 | 8.0 | 0.00 | 0.00 | 0.00 | 52 | 1013.9 |
| 20260504033806 | 11 | 184 | 3.2 | 8.0 | 0.00 | 0.00 | 0.00 | 52 | 1013.8 |
| 20260504033302 | 11 | 215 | 3.2 | 8.0 | 0.00 | 0.00 | 0.00 | 52 | 1013.8 |
| 20260504032759 | 11 | 208 | 3.2 | 8.0 | 0.00 | 0.00 | 0.00 | 52 | 1013.8 |
| 20260504032250 | 11 | 202 | 3.2 | 6.4 | 0.00 | 0.00 | 0.00 | 52 | 1013.8 |
| 20260504031743 | 11 | 205 | 3.2 | 6.4 | 0.00 | 0.00 | 0.00 | 52 | 1013.5 |
| 20260504031700 | 11 | 206 | 3.2 | 8.0 | 0.00 | 0.00 | 0.00 | 51 | 1013.5 |
| 20260504030745 | 11 | 199 | 3.2 | 8.0 | 0.00 | 0.00 | 0.00 | 51 | 1013.5 |
| 20260504030633 | 11 | 207 | 3.2 | 8.0 | 0.00 | 0.00 | 0.00 | 51 | 1013.5 |
| 20260504025740 | 11 | 233 | 3.2 | 8.0 | 0.00 | 0.00 | 0.00 | 51 | 1013.5 |
| 20260504025239 | 11 | 265 | 3.2 | 8.0 | 0.00 | 0.00 | 0.00 | 50 | 1013.4 |
| 20260504024739 | 11 | 0 | 3.2 | 8.0 | 0.00 | 0.00 | 0.00 | 50 | 1013.5 |
| 20260504024239 | 11 | 232 | 3.2 | 9.7 | 0.00 | 0.00 | 0.00 | 50 | 1013.5 |
| 20260504023738 | 11 | 219 | 3.2 | 9.7 | 0.00 | 0.00 | 0.00 | 50 | 1013.6 |
| 20260504023236 | 11 | 215 | 3.2 | 8.0 | 0.00 | 0.00 | 0.00 | 51 | 1013.8 |
| 20260504022738 | 11 | 237 | 3.2 | 8.0 | 0.00 | 0.00 | 0.00 | 50 | 1013.6 |
| 20260504022233 | 11 | 212 | 3.2 | 8.0 | 0.00 | 0.00 | 0.00 | 50 | 1013.5 |
| 20260504021737 | 11 | 241 | 3.2 | 8.0 | 0.00 | 0.00 | 0.00 | 50 | 1013.5 |
| 20260504021234 | 12 | 0 | 3.2 | 8.0 | 0.00 | 0.00 | 0.00 | 49 | 1013.4 |
| 20260504021226 | 12 | 0 | 1.6 | 6.4 | 0.00 | 0.00 | 0.00 | 49 | 1013.4 |
| 20260504020233 | 12 | 205 | 1.6 | 6.4 | 0.00 | 0.00 | 0.00 | 48 | 1013.4 |
| 20260504015954 | 12 | 0 | 3.2 | 6.4 | 0.00 | 0.00 | 0.00 | 47 | 1013.5 |
| 20260504015731 | 12 | 0 | 3.2 | 6.4 | 0.00 | 0.00 | 0.00 | 47 | 1013.5 |
| 20260504015232 | 12 | 0 | 3.2 | 6.4 | 0.00 | 0.00 | 0.00 | 46 | 1013.5 |
| 20260504015201 | 12 | 0 | 3.2 | 14.5 | 0.00 | 0.00 | 0.00 | 46 | 1013.5 |
| 20260504014230 | 12 | 0 | 3.2 | 14.5 | 0.00 | 0.00 | 0.00 | 46 | 1013.5 |
| 20260504013733 | 12 | 0 | 3.2 | 14.5 | 0.00 | 0.00 | 0.00 | 45 | 1013.4 |
| 20260504013226 | 12 | 0 | 3.2 | 14.5 | 0.00 | 0.00 | 0.00 | 45 | 1013.4 |
| 20260504013221 | 12 | 0 | 3.2 | 8.0 | 0.00 | 0.00 | 0.00 | 45 | 1013.4 |
| 20260504012207 | 13 | 0 | 3.2 | 8.0 | 0.00 | 0.00 | 0.00 | 44 | 1013.4 |
| 20260504011710 | 13 | 207 | 3.2 | 8.0 | 0.00 | 0.00 | 0.00 | 44 | 1013.3 |
| 20260504011211 | 13 | 0 | 3.2 | 8.0 | 0.00 | 0.00 | 0.00 | 44 | 1013.2 |
| 20260504010707 | 13 | 0 | 3.2 | 8.0 | 0.00 | 0.00 | 0.00 | 43 | 1013.1 |
| 20260504010210 | 13 | 0 | 3.2 | 9.7 | 0.00 | 0.00 | 0.00 | 43 | 1013.1 |
| 20260504005704 | 13 | 0 | 3.2 | 9.7 | 0.00 | 0.00 | 0.00 | 43 | 1013.0 |
| 20260504005208 | 13 | 242 | 3.2 | 8.0 | 0.00 | 0.00 | 0.00 | 43 | 1013.0 |
| 20260504005118 | 13 | 0 | 1.6 | 8.0 | 0.00 | 0.00 | 0.00 | 42 | 1012.9 |
| 20260504004546 | 13 | 0 | 3.2 | 8.0 | 0.00 | 0.00 | 0.00 | 42 | 1012.8 |
| 20260504003704 | 13 | 0 | 3.2 | 8.0 | 0.00 | 0.00 | 0.00 | 42 | 1012.7 |
| 20260504003203 | 13 | 0 | 3.2 | 8.0 | 0.00 | 0.00 | 0.00 | 41 | 1012.7 |
| 20260504003152 | 13 | 0 | 3.2 | 8.0 | 0.00 | 0.00 | 0.00 | 41 | 1012.6 |
| 20260504002210 | 14 | 0 | 3.2 | 8.0 | 0.00 | 0.00 | 0.00 | 40 | 1012.5 |
| 20260504001709 | 14 | 0 | 3.2 | 14.5 | 0.00 | 0.00 | 0.00 | 40 | 1012.5 |
| 20260504001204 | 14 | 0 | 3.2 | 14.5 | 0.00 | 0.00 | 0.00 | 40 | 1012.4 |
| 20260504000710 | 14 | 0 | 4.8 | 14.5 | 0.00 | 0.00 | 0.00 | 40 | 1012.4 |
| 20260504000204 | 14 | 0 | 4.8 | 14.5 | 0.00 | 0.00 | 0.00 | 39 | 1012.4 |
| 20260504000142 | 14 | 0 | 4.8 | 16.1 | 0.00 | 0.00 | 0.00 | 39 | 1012.3 |
| 20260503235207 | 15 | 259 | 4.8 | 16.1 | 0.00 | 0.00 | 0.00 | 39 | 1012.4 |
| 20260503234702 | 15 | 216 | 6.4 | 16.1 | 0.00 | 0.00 | 0.00 | 38 | 1012.2 |
| 20260503234154 | 15 | 279 | 8.0 | 22.5 | 0.00 | 0.00 | 0.00 | 38 | 1012.1 |
| 20260503233920 | 15 | 293 | 6.4 | 22.5 | 0.00 | 0.00 | 0.00 | 37 | 1012.1 |
| 20260503233145 | 15 | 266 | 6.4 | 22.5 | 0.00 | 0.00 | 0.00 | 37 | 1011.9 |
| 20260503233141 | 15 | 271 | 6.4 | 22.5 | 0.00 | 0.00 | 0.00 | 38 | 1012.0 |
| 20260503232149 | 15 | 244 | 6.4 | 17.7 | 0.00 | 0.00 | 0.00 | 36 | 1011.9 |
| 20260503231901 | 15 | 221 | 8.0 | 17.7 | 0.00 | 0.00 | 0.00 | 36 | 1011.9 |
| 20260503231140 | 16 | 267 | 8.0 | 17.7 | 0.00 | 0.00 | 0.00 | 36 | 1012.0 |
| 20260503230644 | 16 | 298 | 6.4 | 17.7 | 0.00 | 0.00 | 0.00 | 35 | 1012.0 |
| 20260503230140 | 16 | 197 | 6.4 | 16.1 | 0.00 | 0.00 | 0.00 | 36 | 1012.0 |
| 20260503230030 | 16 | 269 | 6.4 | 20.9 | 0.00 | 0.00 | 0.00 | 36 | 1012.0 |
| 20260503225624 | 16 | 237 | 6.4 | 20.9 | 0.00 | 0.00 | 0.00 | 36 | 1012.0 |
| 20260503224640 | 16 | 255 | 8.0 | 20.9 | 0.00 | 0.00 | 0.00 | 35 | 1011.9 |
| 20260503224208 | 16 | 298 | 8.0 | 20.9 | 0.00 | 0.00 | 0.00 | 36 | 1011.9 |
| 20260503224011 | 16 | 294 | 6.4 | 20.9 | 0.00 | 0.00 | 0.00 | 35 | 1011.9 |
| 20260503223202 | 16 | 267 | 6.4 | 20.9 | 0.00 | 0.00 | 0.00 | 35 | 1011.9 |
| 20260503222701 | 16 | 298 | 8.0 | 20.9 | 0.00 | 0.00 | 0.00 | 35 | 1011.8 |
| 20260503222509 | 16 | 282 | 8.0 | 20.9 | 0.00 | 0.00 | 0.00 | 35 | 1011.9 |
| 20260503221655 | 16 | 284 | 6.4 | 22.5 | 0.00 | 0.00 | 0.00 | 35 | 1011.9 |
| 20260503221353 | 16 | 311 | 8.0 | 22.5 | 0.00 | 0.00 | 0.00 | 35 | 1012.0 |
| 20260503220149 | 16 | 308 | 9.7 | 25.7 | 0.00 | 0.00 | 0.00 | 34 | 1012.0 |
| 20260503215648 | 16 | 242 | 9.7 | 25.7 | 0.00 | 0.00 | 0.00 | 34 | 1012.0 |
| 20260503215149 | 16 | 279 | 8.0 | 25.7 | 0.00 | 0.00 | 0.00 | 35 | 1012.0 |
| 20260503214646 | 16 | 269 | 9.7 | 20.9 | 0.00 | 0.00 | 0.00 | 35 | 1011.9 |
| 20260503214148 | 16 | 295 | 8.0 | 20.9 | 0.00 | 0.00 | 0.00 | 34 | 1011.8 |
| 20260503213644 | 16 | 302 | 6.4 | 20.9 | 0.00 | 0.00 | 0.00 | 33 | 1011.8 |
| 20260503213359 | 16 | 257 | 8.0 | 19.3 | 0.00 | 0.00 | 0.00 | 34 | 1011.7 |
| 20260503212641 | 16 | 304 | 8.0 | 19.3 | 0.00 | 0.00 | 0.00 | 34 | 1011.6 |
| 20260503212537 | 16 | 262 | 8.0 | 22.5 | 0.00 | 0.00 | 0.00 | 35 | 1011.7 |
| 20260503211633 | 15 | 315 | 9.7 | 22.5 | 0.00 | 0.00 | 0.00 | 34 | 1011.7 |
| 20260503211135 | 15 | 296 | 9.7 | 22.5 | 0.00 | 0.00 | 0.00 | 33 | 1011.7 |
| 20260503210637 | 16 | 288 | 11.3 | 22.5 | 0.00 | 0.00 | 0.00 | 34 | 1011.8 |
| 20260503210142 | 16 | 302 | 9.7 | 22.5 | 0.00 | 0.00 | 0.00 | 34 | 1011.9 |
| 20260503205639 | 16 | 285 | 9.7 | 20.9 | 0.00 | 0.00 | 0.00 | 35 | 1011.8 |
| 20260503205139 | 16 | 305 | 8.0 | 24.1 | 0.00 | 0.00 | 0.00 | 35 | 1011.9 |
| 20260503204635 | 15 | 313 | 9.7 | 24.1 | 0.00 | 0.00 | 0.00 | 34 | 1011.8 |
| 20260503204149 | 15 | 325 | 11.3 | 24.1 | 0.00 | 0.00 | 0.00 | 33 | 1011.9 |
| 20260503203635 | 15 | 199 | 9.7 | 24.1 | 0.00 | 0.00 | 0.00 | 35 | 1011.9 |
| 20260503203404 | 15 | 303 | 8.0 | 22.5 | 0.00 | 0.00 | 0.00 | 34 | 1011.9 |
| 20260503202638 | 15 | 286 | 8.0 | 29.0 | 0.00 | 0.00 | 0.00 | 36 | 1011.9 |
| 20260503202134 | 15 | 304 | 9.7 | 29.0 | 0.00 | 0.00 | 0.00 | 34 | 1012.0 |
| 20260503201932 | 15 | 248 | 11.3 | 29.0 | 0.00 | 0.00 | 0.00 | 33 | 1012.0 |
| 20260503201216 | 15 | 319 | 9.7 | 25.7 | 0.00 | 0.00 | 0.00 | 34 | 1012.0 |
| 20260503201156 | 15 | 257 | 11.3 | 29.0 | 0.00 | 0.00 | 0.00 | 34 | 1012.1 |
| 20260503200138 | 15 | 248 | 9.7 | 20.9 | 0.00 | 0.00 | 0.00 | 37 | 1012.1 |
| 20260503195724 | 15 | 265 | 8.0 | 20.9 | 0.00 | 0.00 | 0.00 | 37 | 1012.1 |
| 20260503195059 | 14 | 317 | 9.7 | 20.9 | 0.00 | 0.00 | 0.00 | 36 | 1012.4 |
| 20260503194130 | 14 | 272 | 8.0 | 20.9 | 0.00 | 0.00 | 0.00 | 38 | 1012.4 |
| 20260503193916 | 14 | 322 | 8.0 | 20.9 | 0.00 | 0.00 | 0.00 | 38 | 1012.5 |
| 20260503193653 | 14 | 322 | 8.0 | 20.9 | 0.00 | 0.00 | 0.00 | 38 | 1012.5 |
| 20260503193148 | 14 | 295 | 9.7 | 35.4 | 0.00 | 0.00 | 0.00 | 37 | 1012.6 |
| 20260503192130 | 14 | 304 | 12.9 | 35.4 | 0.00 | 0.00 | 0.00 | 36 | 1012.7 |
| 20260503192121 | 14 | 325 | 11.3 | 35.4 | 0.00 | 0.00 | 0.00 | 37 | 1012.9 |
| 20260503191131 | 14 | 306 | 9.7 | 25.7 | 0.00 | 0.00 | 0.00 | 38 | 1012.7 |
| 20260503190629 | 13 | 323 | 9.7 | 25.7 | 0.00 | 0.00 | 0.00 | 39 | 1012.9 |
| 20260503190132 | 13 | 294 | 9.7 | 25.7 | 0.00 | 0.00 | 0.00 | 38 | 1013.0 |
| 20260503185629 | 13 | 319 | 11.3 | 25.7 | 0.00 | 0.00 | 0.00 | 37 | 1013.0 |
| 20260503185129 | 14 | 282 | 8.0 | 19.3 | 0.00 | 0.00 | 0.00 | 37 | 1013.0 |
| 20260503184722 | 13 | 321 | 9.7 | 20.9 | 0.00 | 0.00 | 0.00 | 37 | 1013.1 |
| 20260503184700 | 13 | 279 | 9.7 | 20.9 | 0.00 | 0.00 | 0.00 | 37 | 1013.0 |
| 20260503183138 | 13 | 251 | 11.3 | 20.9 | 0.00 | 0.00 | 0.00 | 37 | 1013.1 |
| 20260503182633 | 13 | 344 | 8.0 | 19.3 | 0.00 | 0.00 | 0.00 | 40 | 1013.1 |
| 20260503182129 | 13 | 319 | 8.0 | 27.4 | 0.00 | 0.00 | 0.00 | 39 | 1013.3 |
| 20260503181637 | 13 | 299 | 9.7 | 27.4 | 0.00 | 0.00 | 0.00 | 38 | 1013.3 |
| 20260503181133 | 13 | 315 | 11.3 | 27.4 | 0.00 | 0.00 | 0.00 | 41 | 1013.3 |
| 20260503180630 | 13 | 328 | 12.9 | 27.4 | 0.00 | 0.00 | 0.00 | 38 | 1013.4 |
| 20260503180136 | 13 | 310 | 11.3 | 25.7 | 0.00 | 0.00 | 0.00 | 39 | 1013.4 |
| 20260503175630 | 12 | 340 | 11.3 | 24.1 | 0.00 | 0.00 | 0.00 | 39 | 1013.4 |
| 20260503175216 | 12 | 0 | 11.3 | 25.7 | 0.00 | 0.00 | 0.00 | 40 | 1013.5 |
| 20260503175148 | 12 | 295 | 11.3 | 25.7 | 0.00 | 0.00 | 0.00 | 37 | 1013.4 |
| 20260503174127 | 12 | 355 | 11.3 | 24.1 | 0.00 | 0.00 | 0.00 | 39 | 1013.5 |
| 20260503173140 | 12 | 308 | 9.7 | 24.1 | 0.00 | 0.00 | 0.00 | 39 | 1013.6 |
| 20260503173129 | 12 | 336 | 11.3 | 24.1 | 0.00 | 0.00 | 0.00 | 40 | 1013.5 |
| 20260503172358 | 12 | 320 | 8.0 | 20.9 | 0.00 | 0.00 | 0.00 | 39 | 1013.6 |
| 20260503172134 | 12 | 320 | 8.0 | 20.9 | 0.00 | 0.00 | 0.00 | 39 | 1013.6 |
| 20260503171629 | 12 | 333 | 9.7 | 20.9 | 0.00 | 0.00 | 0.00 | 39 | 1013.6 |
| 20260503171131 | 12 | 313 | 8.0 | 25.7 | 0.00 | 0.00 | 0.00 | 39 | 1013.6 |
| 20260503170629 | 12 | 305 | 8.0 | 25.7 | 0.00 | 0.00 | 0.00 | 43 | 1014.0 |
| 20260503170130 | 11 | 0 | 9.7 | 25.7 | 0.00 | 0.00 | 0.00 | 41 | 1013.9 |